This demonstration page uses our WeatherBlox Daily Observations layout. Learn more.

Left ArrowRight Arrow

Hourly Observations for June 30, 2015

Temp ( °F °C ) Dew Point ( °F °C ) Humidity (%) Winds ( mph kmh ) Pressure ( in mb ) Visibility ( mi km ) Precip ( " mm )
12:15 am 00:15 Clear 68 20 63 17 83 83 Calm 29.94 1014 10 16 0.00 0.00
12:35 am 00:35 Clear 66 19 63 17 88 88 Calm 29.94 1014 10 16 0.00 0.00
12:55 am 00:55 Clear 66 19 63 17 88 88 SSW 3 6 29.94 1014 10 16 0.00 0.00
1:15 am 01:15 Clear 68 20 61 16 78 78 S 6 9 29.94 1014 10 16 0.00 0.00
1:35 am 01:35 Clear 68 20 63 17 83 83 S 7 11 29.94 1014 10 16 0.00 0.00
1:55 am 01:55 Clear 68 20 63 17 83 83 Calm 29.94 1014 10 16 0.00 0.00
2:15 am 02:15 Clear 64 18 63 17 94 94 Calm 29.94 1014 10 16 0.00 0.00
2:35 am 02:35 Clear 64 18 63 17 94 94 Calm 29.91 1013 10 16 0.00 0.00
2:55 am 02:55 Clear 64 18 63 17 94 94 Calm 29.91 1013 10 16 0.00 0.00
3:15 am 03:15 Clear 64 18 63 17 94 94 Calm 29.91 1013 10 16 0.00 0.00
3:35 am 03:35 Clear 63 17 63 17 100 100 Calm 29.91 1013 10 16 0.00 0.00
3:55 am 03:55 Clear 63 17 63 17 100 100 Calm 29.91 1013 10 16 0.00 0.00
4:15 am 04:15 Clear 63 17 61 16 94 94 Calm 29.91 1013 10 16 0.00 0.00
4:35 am 04:35 Clear 63 17 63 17 100 100 Calm 29.91 1013 10 16 0.00 0.00
4:55 am 04:55 Clear 64 18 63 17 94 94 Calm 29.91 1013 10 16 0.00 0.00
5:15 am 05:15 Partly Cloudy 63 17 63 17 100 100 Calm 29.91 1013 10 16 0.00 0.00
5:35 am 05:35 Mostly Cloudy 66 19 64 18 94 94 Calm 29.91 1013 10 16 0.00 0.00
5:55 am 05:55 Mostly Cloudy 66 19 64 18 94 94 Calm 29.91 1013 10 16 0.00 0.00
6:15 am 06:15 Mostly Cloudy 66 19 64 18 94 94 Calm 29.91 1013 10 16 0.00 0.00
6:35 am 06:35 Mostly Cloudy 66 19 64 18 94 94 S 3 6 29.91 1013 10 16 0.00 0.00
6:55 am 06:55 Cloudy 68 20 66 19 94 94 Calm 29.91 1013 10 16 0.00 0.00
7:15 am 07:15 Cloudy 68 20 68 20 100 100 Calm 29.91 1013 10 16 0.00 0.00
7:35 am 07:35 Cloudy 68 20 68 20 100 100 Calm 29.91 1013 10 16 0.00 0.00
7:55 am 07:55 Cloudy 70 21 68 20 94 94 S 3 6 29.91 1013 10 16 0.00 0.00
8:15 am 08:15 Mostly Cloudy 70 21 68 20 94 94 S 3 6 29.94 1014 10 16 0.00 0.00
8:35 am 08:35 Mostly Cloudy 70 21 68 20 94 94 S 5 7 29.94 1014 10 16 0.00 0.00
8:55 am 08:55 Cloudy 70 21 70 21 100 100 S 7 11 29.94 1014 10 16 0.00 0.00
9:15 am 09:15 Cloudy 72 22 70 21 94 94 S 8 13 29.94 1014 10 16 0.00 0.00
9:35 am 09:35 Mostly Cloudy 72 22 70 21 94 94 S 7 11 29.91 1013 10 16 0.00 0.00
9:55 am 09:55 Mostly Cloudy 73 23 70 21 89 89 S 12 19 29.91 1013 10 16 0.00 0.00
10:15 am 10:15 Cloudy 75 24 70 21 83 83 S 10 17 29.91 1013 10 16 0.00 0.00
10:35 am 10:35 Cloudy 77 25 70 21 79 79 S 8 13 29.91 1013 10 16 0.00 0.00
10:55 am 10:55 Cloudy with Nearby Thunderstorms 79 26 72 22 79 79 SW 6 9 29.91 1013 10 16 0.00 0.00
11:15 am 11:15 Mostly Cloudy 79 26 70 21 74 74 S 13 20 29.91 1013 10 16 0.00 0.00
11:35 am 11:35 Partly Cloudy 81 27 72 22 74 74 S 9 15 29.91 1013 10 16 0.00 0.00
11:55 am 11:55 Partly Cloudy 81 27 70 21 70 70 S 10 17 29.91 1013 10 16 0.00 0.00
12:15 pm 12:15 Partly Cloudy 82 28 72 22 70 70 S 13 20 29.91 1013 10 16 0.00 0.00
12:35 pm 12:35 Partly Cloudy 82 28 72 22 70 70 S 7 11 29.91 1013 10 16 0.00 0.00
12:55 pm 12:55 Partly Cloudy 84 29 72 22 66 66 SSW 10 17 29.88 1012 10 16 0.00 0.00
1:15 pm 13:15 Sunny 86 30 72 22 62 62 SSW 12 19 29.85 1011 10 16 0.00 0.00
1:35 pm 13:35 Partly Cloudy 86 30 70 21 59 59 WSW 9 15 29.85 1011 10 16 0.00 0.00
1:55 pm 13:55 Partly Cloudy 86 30 70 21 59 59 SSW 16 26 29.85 1011 10 16 0.00 0.00
2:15 pm 14:15 Mostly Cloudy 86 30 70 21 59 59 S 13 20 29.83 1010 10 16 0.00 0.00
2:35 pm 14:35 Partly Cloudy 88 31 70 21 55 55 S 14 22 29.83 1010 10 16 0.00 0.00
2:55 pm 14:55 Sunny 88 31 70 21 55 55 SW 13 20 29.83 1010 10 16 0.00 0.00
3:15 pm 15:15 Sunny 88 31 70 21 55 55 S 17 28 29.80 1009 10 16 0.00 0.00
3:35 pm 15:35 Sunny 88 31 70 21 55 55 SSW 13 20 29.80 1009 10 16 0.00 0.00
3:55 pm 15:55 Sunny 88 31 68 20 52 52 S 20 31 29.80 1009 10 16 0.00 0.00
4:15 pm 16:15 Sunny 88 31 70 21 55 55 SSW 10 17 29.77 1008 10 16 0.00 0.00
4:35 pm 16:35 Sunny 86 30 70 21 59 59 SSW 14 22 29.77 1008 10 16 0.00 0.00
4:55 pm 16:55 Sunny 86 30 68 20 55 55 S 16 26 29.77 1008 10 16 0.00 0.00
5:15 pm 17:15 Sunny 86 30 70 21 59 59 SSW 12 19 29.77 1008 10 16 0.00 0.00
5:35 pm 17:35 Sunny 86 30 70 21 59 59 SSW 13 20 29.77 1008 10 16 0.00 0.00
5:55 pm 17:55 Sunny 84 29 70 21 62 62 SSW 12 19 29.77 1008 10 16 0.00 0.00
6:15 pm 18:15 Sunny 86 30 70 21 59 59 SSW 12 19 29.77 1008 10 16 0.00 0.00
6:35 pm 18:35 Sunny 84 29 70 21 62 62 SSW 10 17 29.77 1008 10 16 0.00 0.00
6:55 pm 18:55 Sunny 82 28 70 21 66 66 SSW 12 19 29.80 1009 10 16 0.00 0.00
7:15 pm 19:15 Sunny 82 28 70 21 66 66 SSW 12 19 29.83 1010 10 16 0.00 0.00
7:35 pm 19:35 Sunny 82 28 70 21 66 66 SSW 12 19 29.83 1010 10 16 0.00 0.00
8:15 pm 20:15 Sunny 81 27 70 21 70 70 S 10 17 29.83 1010 10 16 0.00 0.00
10:15 pm 22:15 Clear 77 25 70 21 79 79 SSW 10 17 29.83 1010 10 16 0.00 0.00
10:35 pm 22:35 Clear with Nearby Thunderstorms 77 25 70 21 79 79 WSW 5 7 29.83 1010 10 16 0.00 0.00
10:55 pm 22:55 Partly Cloudy with Light Rain 73 23 72 22 94 94 WNW 10 17 29.83 1010 10 16 0.00 0.00
11:15 pm 23:15 Mostly Cloudy with Light Rain 73 23 72 22 94 94 W 8 13 29.83 1010 10 16 0.00 0.00
11:35 pm 23:35 Cloudy with Nearby Thunderstorms 73 23 70 21 89 89 WNW 9 15 29.85 1011 10 16 0.00 0.00
11:55 pm 23:55 Cloudy 70 21 64 18 83 83 W 12 19 29.85 1011 2 3 0.23 5.84

Powered by AerisWeather